[[{"header":{"parameterUnit":"m.s-1","parameterCategory":1,"la1":30.2991,"la2":30.254,"lo1":-89.0895,"lo2":-89.0444,"dy":0.0017,"dx":0.0017,"nx":28,"ny":28,"refTime":"2024-10-17T03:00:00:Z","depth":0,"parameterNumber":2,"parameterNumberName":"U-component_of_WINDS"},"data":[0,0,0,0,0,0,0,0,0,0,0,0,0,0,0,0,0,0,0,0,0,0,0,0,0,0,0,0,0,0,0,0,0,0,0,0,0,0,0,0,0,0,0,0,0,0,0,0,0,0,0,0,0,0,0,0,0,0,-4.7619,-4.762,0,-4.7687,-4.7688,-4.7688,-4.748,-4.7474,-4.7467,-4.7461,-4.7534,-4.7542,-4.755,0,0,0,0,0,0,0,0,0,0,0,0,0,-4.7311,-4.7318,-4.7619,-4.762,-4.7621,-4.7687,-4.7688,-4.7689,-4.7481,-4.7473,-4.7466,-4.7458,-4.7532,-4.7541,-4.755,0,0,0,0,0,0,0,0,0,0,0,0,0,-4.7419,-4.732,-4.7619,-4.7525,-4.7517,-4.7687,-4.7688,-4.7689,-4.7483,-4.7473,-4.7464,-4.7455,-4.7528,-4.754,-4.7552,-4.7816,0,0,-4.7588,-4.7593,0,0,0,0,0,0,0,0,-4.7413,-4.743,-4.7538,-4.7532,-4.7523,-4.7565,-4.7605,-4.7732,-4.7485,-4.7496,-4.7461,-4.745,-4.7552,-4.7562,-4.7595,-4.7819,-4.7822,-4.7589,-4.7596,-4.7601,-4.7604,0,0,0,0,0,0,0,-4.7406,-4.7426,-4.7646,-4.754,-4.7531,-4.748,-4.7485,-4.7628,-4.7577,-4.7494,-4.7479,-4.749,-4.7547,-4.7585,-4.7596,-4.7823,-4.7588,-4.7599,-4.7606,-4.7611,-4.8266,-4.8276,0,0,0,0,0,0,-4.741,-4.7421,-4.7644,-4.7648,-4.7443,-4.7493,-4.7498,-4.7561,-4.7575,-4.7568,-4.7498,-4.748,-4.7569,-4.7582,-4.7597,-4.7908,-4.7601,-4.7612,-4.7619,-4.8256,-4.8268,-4.828,0,0,0,0,0,0,-4.7404,-4.7432,-4.7641,-4.753,-4.7553,-4.7509,-4.7581,-4.7568,-4.7605,-4.7578,-4.7568,-4.7547,-4.7562,-4.7581,-4.7763,-4.7908,-4.7617,-4.7628,-4.8244,-4.826,-4.8274,-4.8532,0,0,0,0,0,0,-4.7396,-4.7431,-4.7531,-4.7534,-4.756,-4.7806,-4.759,-4.7576,-4.7626,-4.7603,-4.762,-4.7614,-4.7556,-4.7746,-4.7774,-4.7919,-4.7637,-4.8231,-4.8251,-4.8269,-4.851,-4.8554,-4.8592,0,0,0,0,0,-4.7386,-4.7602,-4.7537,-4.7565,-4.7684,-4.7815,-4.7829,-4.7757,-4.7639,-4.7739,-4.772,-4.7614,-4.7886,-4.7766,-4.7797,-4.7947,-4.8221,-4.8245,-4.8268,-4.8492,-4.8546,-4.8591,0,0,0,0,0,0,-4.7619,-4.7601,-4.7529,-4.7752,-4.7786,-4.7779,-4.7904,-4.7816,-4.7886,-4.7862,-4.7769,-4.7775,-4.7974,-4.7977,-4.7844,-4.8202,-4.8033,-4.8064,-4.8194,-4.8245,-4.8285,-4.8281,-4.7647,0,0,0,0,0,-4.7695,-4.7802,-4.7781,-4.798,-4.8,-4.795,-4.8004,-4.7945,-4.7977,-4.7991,-4.7986,-4.8022,-4.8115,-4.8179,-4.8264,-4.8508,-4.8509,-4.8626,-4.8667,-4.87,-4.8729,-4.8859,-4.8911,-4.8356,-4.8356,-4.8355,0,0,-4.7856,-4.7859,-4.7933,-4.8027,-4.8046,-4.816,-4.7963,-4.8092,-4.8175,-4.801,-4.8182,-4.818,-4.8214,-4.8428,-4.8522,-4.8437,-4.8882,-4.873,-4.8757,-4.8767,-4.8888,-4.8941,-4.8988,-4.8372,-4.8369,-4.8366,0,0,-4.8208,-4.8221,-4.8388,-4.8411,-4.8442,-4.8406,-4.8447,-4.8452,-4.8444,-4.8614,-4.8493,-4.859,-4.8753,-4.8783,-4.8819,-4.9179,-4.9084,-4.9209,-4.9424,-4.9551,-4.9595,-4.9633,-4.9764,-4.9811,-4.9236,-4.9237,-4.9237,0,-4.8405,-4.8571,-4.8485,-4.8622,-4.8667,-4.852,-4.8689,-4.8716,-4.8775,-4.8809,-4.8712,-4.8913,-4.8925,-4.9145,-4.9232,-4.9266,-4.931,-4.9208,-4.9595,-4.9633,-4.9667,-4.9791,-4.984,-4.9252,-4.925,-4.9249,-4.9247,0,-4.8811,-4.8928,-4.9059,-4.9118,-4.9177,-4.933,-4.9268,-4.9338,-4.9273,-4.9247,-4.9422,-4.9431,-4.9515,-4.9562,-4.95,-4.9773,-4.9719,-4.961,-4.944,-4.9737,-4.9852,-4.9898,-4.9274,-4.9268,-4.9264,-4.926,0,0,-4.9316,-4.9323,-4.9373,-4.9398,-4.942,-4.9509,-4.9654,-4.9734,-4.9797,-4.9841,-4.9961,-5.0101,-5.0,-5.0041,-4.9981,-5.0093,-5.0379,-4.9969,-4.9969,-5.0048,-5.0682,-5.0766,-5.0822,-5.0313,-5.0322,-5.0329,-5.0679,0,-4.9664,-4.9913,-4.9839,-5.0089,-5.0196,-5.0056,-5.0183,-5.0211,-5.019,-5.0278,-5.0254,-5.0356,-5.0213,-5.0237,-5.0341,-5.0322,-5.0506,-5.0295,-5.0427,-5.0433,-5.0427,-5.0881,-5.0972,-5.1302,-5.0723,-5.0731,-5.0736,0,-5.0105,-5.0165,-5.0426,-5.0429,-5.0471,-5.0586,-5.0654,-5.0739,-5.0767,-5.0743,-5.0789,-5.0705,-5.0847,-5.0673,-5.0869,-5.0728,-5.0776,-5.0775,-5.0786,-5.0798,-5.0606,-5.091,-5.1406,-5.1457,-5.0805,-5.08,-5.0795,0,-5.045,-5.0596,-5.077,-5.0795,-5.0803,-5.0887,-5.0895,-5.0913,-5.0966,-5.1024,-5.1057,-5.1132,-5.1174,-5.1234,-5.1173,-5.1051,-5.1379,-5.1199,-5.1366,-5.1368,-5.1445,-5.1441,-5.1959,-5.1471,-5.147,-5.1469,-5.1468,0,-5.0849,-5.1015,-5.0926,-5.1034,-5.1215,-5.1128,-5.131,-5.1301,-5.1318,-5.1422,-5.1304,-5.1405,-5.1315,-5.1408,-5.136,-5.1531,-5.155,-5.1536,-5.1523,-5.1549,-5.1552,-5.1583,-5.156,-5.1482,-5.1479,-5.1477,-5.1474,0,-5.1268,-5.1214,-5.1396,-5.1387,-5.1388,-5.1523,-5.1515,-5.1615,-5.1583,-5.1717,-5.1743,-5.1696,-5.1798,-5.1741,-5.1847,-5.1814,-5.2037,-5.199,-5.2028,-5.2017,-5.2188,-5.2174,-5.2747,-5.2818,-5.2281,-5.2287,-5.2291,0,-5.1528,-5.1652,-5.1655,-5.1716,-5.1731,-5.183,-5.1882,-5.18,-5.186,-5.19,-5.1995,-5.2087,-5.2157,-5.2327,-5.2302,-5.2382,-5.2338,-5.2533,-5.235,-5.2373,-5.2345,-5.234,-5.2352,-5.2572,-5.2578,-5.2583,-5.2587,0,-5.1996,-5.1962,-5.2042,-5.2113,-5.2179,-5.2231,-5.2273,-5.233,-5.2247,-5.2321,-5.2423,-5.2477,-5.2583,-5.2677,-5.2745,-5.2752,-5.2659,-5.2644,-5.2688,-5.2719,-5.2737,-5.2732,-5.2132,-5.2633,-5.2628,-5.2625,-5.2623,-5.2621,-5.2344,-5.2448,-5.2467,-5.256,-5.2582,-5.2624,-5.2717,-5.2696,-5.278,-5.286,-5.2805,-5.2928,-5.295,-5.3031,-5.3051,-5.3145,-5.3067,-5.3129,-5.3146,-5.3163,-5.3188,-5.2718,-5.3157,-5.3155,-5.3154,-5.3153,-5.3152,0,-5.2808,-5.2813,-5.2898,-5.2961,-5.3034,-5.2934,-5.2976,-5.3044,-5.3152,-5.3181,-5.3251,-5.3369,-5.3458,-5.3439,-5.3519,-5.3599,-5.3558,-5.3623,-5.3618,-5.3622,-5.3252,-5.3208,-5.3655,-5.3655,-5.3655,-5.3655,-5.3655,-5.3655,-5.3059,-5.323,-5.3198,-5.3379,-5.3381,-5.3499,-5.3531,-5.3569,-5.3591,-5.3728,-5.3801,-5.3786,-5.3796,-5.3876,-5.3954,-5.3945,-5.3982,-5.4065,-5.4042,-5.3697,-5.3648,-5.3601,-5.3559,-5.4073,-5.4073,-5.4404,-5.4407,-5.4409]},{"header":{"parameterUnit":"m.s-1","parameterCategory":1,"la1":30.2991,"la2":30.254,"lo1":-89.0895,"lo2":-89.0444,"dy":0.0017,"dx":0.0017,"nx":28,"ny":28,"refTime":"2024-10-17T03:00:00:Z","depth":0,"parameterNumber":3,"parameterNumberName":"V-component_of_WINDS"},"data":[0,0,0,0,0,0,0,0,0,0,0,0,0,0,0,0,0,0,0,0,0,0,0,0,0,0,0,0,0,0,0,0,0,0,0,0,0,0,0,0,0,0,0,0,0,0,0,0,0,0,0,0,0,0,0,0,0,0,-4.6829,-4.683,0,-4.6876,-4.6877,-4.6877,-4.6818,-4.6816,-4.6813,-4.6811,-4.6857,-4.686,-4.6863,0,0,0,0,0,0,0,0,0,0,0,0,0,-4.6683,-4.6686,-4.6829,-4.683,-4.683,-4.6876,-4.6877,-4.6877,-4.6818,-4.6815,-4.6813,-4.681,-4.6856,-4.6859,-4.6863,0,0,0,0,0,0,0,0,0,0,0,0,0,-4.674,-4.6687,-4.6829,-4.6806,-4.6805,-4.6876,-4.6877,-4.6878,-4.6819,-4.6815,-4.6812,-4.6809,-4.6854,-4.6859,-4.6864,-4.6959,0,0,-4.6879,-4.6881,0,0,0,0,0,0,0,0,-4.6737,-4.6745,-4.6809,-4.6808,-4.6806,-4.6838,-4.6842,-4.6905,-4.6819,-4.6813,-4.6811,-4.6807,-4.6853,-4.6858,-4.6874,-4.6961,-4.6963,-4.6879,-4.6882,-4.6884,-4.6886,0,0,0,0,0,0,0,-4.6733,-4.6743,-4.6848,-4.681,-4.6808,-4.6792,-4.6797,-4.6853,-4.6851,-4.6814,-4.6809,-4.6816,-4.6851,-4.6869,-4.6874,-4.6964,-4.6879,-4.6883,-4.6886,-4.6888,-4.7127,-4.7131,0,0,0,0,0,0,-4.6732,-4.674,-4.6846,-4.6849,-4.6763,-4.6797,-4.6802,-4.6831,-4.685,-4.685,-4.6819,-4.6813,-4.6862,-4.6869,-4.6876,-4.6985,-4.6884,-4.6889,-4.6891,-4.7124,-4.7128,-4.7132,0,0,0,0,0,0,-4.6729,-4.6742,-4.6844,-4.6793,-4.6805,-4.6803,-4.6836,-4.6834,-4.6851,-4.6854,-4.6853,-4.6837,-4.686,-4.6869,-4.6938,-4.6986,-4.6891,-4.6895,-4.712,-4.7125,-4.713,-4.7207,0,0,0,0,0,0,-4.6725,-4.6742,-4.6779,-4.6795,-4.6808,-4.6908,-4.6839,-4.6837,-4.686,-4.6853,-4.6871,-4.6871,-4.6858,-4.6931,-4.6943,-4.6991,-4.6899,-4.7115,-4.7122,-4.7128,-4.72,-4.7214,-4.7226,0,0,0,0,0,-4.672,-4.6799,-4.6781,-4.6794,-4.6855,-4.6911,-4.6918,-4.6903,-4.6864,-4.69,-4.6902,-4.687,-4.6979,-4.6939,-4.6951,-4.7002,-4.7112,-4.712,-4.7128,-4.7194,-4.7211,-4.7226,0,0,0,0,0,0,-4.6789,-4.6801,-4.6781,-4.6868,-4.6889,-4.69,-4.6946,-4.6922,-4.6953,-4.6945,-4.6924,-4.6929,-4.7002,-4.7009,-4.6963,-4.7093,-4.7039,-4.705,-4.7085,-4.7101,-4.7114,-4.711,-4.6903,0,0,0,0,0,-4.6814,-4.6859,-4.6867,-4.6942,-4.6954,-4.6948,-4.6972,-4.6958,-4.6978,-4.6987,-4.6993,-4.7013,-4.7051,-4.7077,-4.7113,-4.7201,-4.7202,-4.7242,-4.7255,-4.7266,-4.7274,-4.7318,-4.7335,-4.7157,-4.7157,-4.7157,0,0,-4.6866,-4.6878,-4.6908,-4.6956,-4.6971,-4.7016,-4.6956,-4.7007,-4.704,-4.6994,-4.7059,-4.7065,-4.7085,-4.7164,-4.7199,-4.7172,-4.7324,-4.7275,-4.7284,-4.7287,-4.7328,-4.7344,-4.7359,-4.7163,-4.7162,-4.7161,0,0,-4.6984,-4.6999,-4.7062,-4.7077,-4.71,-4.7096,-4.7111,-4.7126,-4.7128,-4.7193,-4.7159,-4.7197,-4.7264,-4.7279,-4.7296,-4.7417,-4.7388,-4.7429,-4.7496,-4.7539,-4.7553,-4.7565,-4.7606,-4.7621,-4.7438,-4.7439,-4.7439,0,-4.7046,-4.7114,-4.7097,-4.715,-4.7171,-4.7132,-4.7193,-4.7209,-4.7242,-4.7256,-4.7226,-4.7308,-4.732,-4.7399,-4.7428,-4.7444,-4.7459,-4.7426,-4.7553,-4.7565,-4.7576,-4.7614,-4.763,-4.7443,-4.7443,-4.7442,-4.7442,0,-4.7187,-4.7235,-4.7282,-4.7315,-4.7341,-4.7398,-4.7388,-4.7416,-4.74,-4.7398,-4.7463,-4.7475,-4.7511,-4.753,-4.7515,-4.7607,-4.7589,-4.7557,-4.7502,-4.7598,-4.7633,-4.7648,-4.745,-4.7448,-4.7447,-4.7446,0,0,-4.7349,-4.737,-4.7388,-4.7401,-4.7422,-4.7457,-4.7512,-4.7547,-4.757,-4.7594,-4.7637,-4.7694,-4.7664,-4.7682,-4.7668,-4.7707,-4.7798,-4.7669,-4.7669,-4.769,-4.7896,-4.7918,-4.7936,-4.7779,-4.7782,-4.7784,-4.7893,0,-4.7465,-4.7559,-4.7544,-4.7635,-4.7676,-4.7639,-4.7686,-4.7703,-4.7702,-4.7736,-4.7735,-4.7774,-4.7733,-4.7743,-4.7779,-4.7779,-4.7838,-4.7771,-4.7817,-4.7818,-4.781,-4.7954,-4.7979,-4.8081,-4.7907,-4.791,-4.7911,0,-4.7612,-4.764,-4.7735,-4.7747,-4.7764,-4.7806,-4.7835,-4.787,-4.7887,-4.7884,-4.7904,-4.7882,-4.7934,-4.788,-4.7949,-4.7904,-4.7922,-4.7924,-4.7928,-4.7929,-4.7869,-4.7957,-4.8113,-4.8128,-4.7933,-4.7932,-4.793,0,-4.7717,-4.7779,-4.7842,-4.7855,-4.7871,-4.7901,-4.7909,-4.7924,-4.7945,-4.7971,-4.7984,-4.8016,-4.8032,-4.8056,-4.8043,-4.8006,-4.8114,-4.8059,-4.811,-4.811,-4.8133,-4.8131,-4.8291,-4.8149,-4.8149,-4.8148,-4.8148,0,-4.7846,-4.7904,-4.7889,-4.7928,-4.7992,-4.7973,-4.8036,-4.804,-4.8052,-4.809,-4.806,-4.8095,-4.8077,-4.811,-4.81,-4.8157,-4.8166,-4.8163,-4.8159,-4.8164,-4.8164,-4.8173,-4.8165,-4.8152,-4.8152,-4.8151,-4.815,0,-4.7973,-4.7966,-4.8032,-4.8041,-4.8045,-4.8091,-4.8098,-4.8133,-4.813,-4.8177,-4.8188,-4.8182,-4.822,-4.8209,-4.825,-4.8243,-4.8314,-4.8303,-4.8309,-4.8305,-4.8355,-4.8349,-4.8524,-4.8545,-4.8392,-4.8394,-4.8395,0,-4.8054,-4.8098,-4.8112,-4.8135,-4.8145,-4.8183,-4.8204,-4.8187,-4.821,-4.8232,-4.8264,-4.8299,-4.8326,-4.8387,-4.8386,-4.8417,-4.8404,-4.8463,-4.8408,-4.8411,-4.8401,-4.8397,-4.84,-4.8473,-4.8475,-4.8477,-4.8478,0,-4.8198,-4.8192,-4.8224,-4.8254,-4.828,-4.8303,-4.8323,-4.8344,-4.8328,-4.8355,-4.8393,-4.8414,-4.8455,-4.8489,-4.8517,-4.8523,-4.8497,-4.8495,-4.8508,-4.8512,-4.8512,-4.851,-4.8335,-4.8491,-4.849,-4.8489,-4.8488,-4.8487,-4.8303,-4.8339,-4.8353,-4.8389,-4.8402,-4.8421,-4.8454,-4.8454,-4.8486,-4.8518,-4.8506,-4.8549,-4.8563,-4.8597,-4.8607,-4.8639,-4.8616,-4.8635,-4.864,-4.8644,-4.8649,-4.851,-4.8644,-4.8644,-4.8643,-4.8643,-4.8643,0,-4.8443,-4.845,-4.8483,-4.8511,-4.8539,-4.8513,-4.8533,-4.8557,-4.8595,-4.8611,-4.8638,-4.868,-4.8712,-4.8713,-4.8743,-4.8768,-4.8757,-4.8777,-4.8773,-4.8774,-4.8669,-4.8654,-4.8785,-4.8785,-4.8785,-4.8785,-4.8785,-4.8785,-4.8518,-4.8577,-4.8572,-4.8635,-4.8642,-4.8683,-4.8697,-4.8713,-4.8725,-4.8773,-4.88,-4.8801,-4.8809,-4.8839,-4.8867,-4.8866,-4.8877,-4.8901,-4.8896,-4.8797,-4.8782,-4.8769,-4.8754,-4.8904,-4.8904,-4.8998,-4.8999,-4.8999]}]]